Orbital Elements at Epoch 2458271.5 (2018-Jun-02.0) TDB
Reference: JPL 6 (heliocentric ecliptic J2000)
Element | Value | Uncertainty (1-sigma) | Units |
e | .431805384263455 | 0.00015498 | |
a | 1.376304490962933 | 0.00027713 | au |
q | .7820088013791648 | 5.5971e-05 | au |
i | 4.296820839591492 | 0.0012844 | deg |
node | 71.86962941840413 | 2.862e-05 | deg |
peri | 256.0482322081762 | 0.00077352 | deg |
M | 326.7251660281628 | 0.013834 | deg |
tp | 2458326.010932799894 (2018-Jul-26.51093280) | 0.0062002 | TDB |
period | 589.7530795967589 1.61 | 0.17813 0.0004877 | d yr |
n | .6104249599614612 | 0.00018437 | deg/d |
Q | 1.970600180546701 | 0.0003968 | au |
|
| | Orbit Determination Parameters
Additional Information
|